Regional Weather Roundup
Issued by NWS Cleveland, OH

Current Version | Previous Version | Text Only | Print | Product List | Glossary On
Versions: 1 2 3 4 5 6 7 8 9 10 11 12 13 14 15 16 17 18 19 20 21 22 23 24 25 26 27 28 29 30 31 32 33 34 35 36 37 38 39 40 41 42 43 44 45 46 47 48 49 50
000
ASUS41 KCLE 301312
RWRCLE
OHIO REGIONAL WEATHER ROUNDUP
NATIONAL WEATHER SERVICE WILMINGTON, OH
900 AM EDT FRI SEP 30 2022

NOTE: "FAIR" INDICATES FEW OR NO CLOUDS BELOW 12,000 FEET WITH NO
SIGNIFICANT WEATHER AND/OR OBSTRUCTIONS TO VISIBILITY.

OHZ001>008-015>018-024>027-034-035-043-044-301400-
   NORTHWEST OHIO

CITY           SKY/WX    TMP DP  RH WIND       PRES   REMARKS
DEFIANCE       FAIR      47  45  93 NE5       30.36R
FINDLAY        FAIR      49  43  80 NE6       30.33R
TOLEDO EXPRESS PTSUNNY   49  45  86 CALM      30.35S
TOLEDO EXEC    PTSUNNY   51  47  86 NW5       30.36S
LIMA           FAIR      46  43  89 NE5       30.33R
$$

OHZ009>014-019>023-028>033-038-089-301400-
   NORTHEAST OHIO

CITY           SKY/WX    TMP DP  RH WIND       PRES   REMARKS
CLE-HOPKINS    FAIR      50  42  74 E5        30.32F
CLE-LAKEFRONT  FAIR      52  42  69 SE5       30.33F
CUY CO. ARPT   SUNNY     48  41  76 SE3       30.34S
LORAIN-ELYRIA  FAIR      46  44  93 CALM      30.35S
ASHTABULA      FAIR      45  41  86 E3        30.36S
AKRON-CANTON   FAIR      45  41  86 E9        30.33R
WOOSTER        FAIR      46  43  89 E5        30.33S
MANSFIELD      FAIR      47  43  86 NE3       30.31S
YOUNGSTOWN     FAIR      43  40  89 E6        30.34S
$$

OHZ042-051>053-060>062-070>072-077>081-301400-
  SOUTHWEST OHIO

CITY           SKY/WX    TMP DP  RH WIND       PRES   REMARKS
CINC-COVINGTON FAIR      49  45  86 NE10      30.26S
CINC-LUNKEN    FAIR      48  45  89 NE7       30.29R
HAMILTON       FAIR      49  44  83 VRB3      30.30R
DAYTON         FAIR      48  43  82 NE7       30.31R
WRIGHT-PAT AFB FAIR      46  43  88 NE6       30.26S
DAYTON GENERAL FAIR      49  44  83 NE8       30.28S
WILMINGTON     FAIR      47  43  86 NE9       30.27S
$$

OHZ036-037-039>041-045>050-054>059-063>069-073>076-082>088-301400-
  CENTRAL AND SOUTHEAST OHIO

CITY           SKY/WX    TMP DP  RH WIND       PRES   REMARKS
COLUMBUS       FAIR      48  44  86 NE6       30.29R
OSU AIRPORT    FAIR      49  44  83 N5        30.30R
BOLTON FIELD   SUNNY     46  45  93 NE6       30.30R
RICKENBACK AFB FAIR      44  42  93 NE3       30.29R
NEWARK         FAIR      48  42  80 N5        30.30R
MARION         FAIR      47  43  86 NE3       30.31S
LANCASTER      FAIR      46  44  93 N3        30.29R
ZANESVILLE     FAIR      45  42  89 NE6       30.29S
NEW PHILLY     FAIR      44  43  96 CALM      30.32S
$$



USA.gov is the U.S. government's official web portal to all federal, state and local government web resources and services.